Regional Weather Roundup
Issued by NWS Charleston, WV

Home | Current Version | Previous Version | Text Only | Print | Product List | Glossary Off
Versions: 1 2 3 4 5 6 7 8 9 10 11 12 13 14 15 16 17 18 19 20 21 22 23 24 25 26 27 28 29 30 31 32 33 34 35 36 37 38 39 40 41 42 43 44 45 46 47 48 49 50

000
ASUS41 KRLX 282210
RWRRLX
West Virginia Regional Weather Roundup
National Weather Service Charleston WV
500 PM EST SAT FEB 28 2015

Note: "fair" indicates few or no clouds below 12,000 feet with no
significant weather and/or obstructions to visibility.

WVZ003-282300-
Northern Panhandle of West Virginia

CITY           SKY/WX    TMP DP  RH WIND       PRES   REMARKS
WHEELING       MOSUNNY   26   2  35 E7        30.60F
$$

WVZ009-282300-
Northwest West Virginia

CITY           SKY/WX    TMP DP  RH WIND       PRES   REMARKS
PARKERSBURG    PTSUNNY   32   4  30 NE6       30.63F
$$

WVZ006-282300-
Western West Virginia

CITY           SKY/WX    TMP DP  RH WIND       PRES   REMARKS
HUNTINGTON     CLOUDY    36  13  38 N6        30.56F
$$

WVZ015-282300-
West Central West Virginia

CITY           SKY/WX    TMP DP  RH WIND       PRES   REMARKS
CHARLESTON     MOSUNNY   40  14  34 N5        30.56F
$$

WVZ022-031-282300-
North Central West Virginia

CITY           SKY/WX    TMP DP  RH WIND       PRES   REMARKS
CLARKSBURG     CLOUDY    31   5  33 N3        30.59F
MORGANTOWN     CLOUDY    31   3  30 NW6       30.61S
$$

WVZ025-035-042-045-282300-
Southern West Virginia

CITY           SKY/WX    TMP DP  RH WIND       PRES   REMARKS
BECKLEY        MOSUNNY   34  14  43 SE12      30.50F
LOGAN            N/A     39  19  45 CALM      30.49S
BLUEFIELD      MOSUNNY   39  18  42 SE3       30.50F
LEWISBURG      PTSUNNY   35  12  39 CALM      30.55S
$$

WVZ047-282300-
Northern Mountains of West Virginia

CITY           SKY/WX    TMP DP  RH WIND       PRES   REMARKS
ELKINS         PTSUNNY   36   2  23 CALM      30.54R
$$

WVZ052-282300-
Eastern Panhandle of West Virginia

CITY           SKY/WX    TMP DP  RH WIND       PRES   REMARKS
MARTINSBURG    SUNNY     29  -2  26 CALM      30.71F
PETERSBURG     SUNNY     35   5  27 CALM      30.64S
$$


USA.gov is the U.S. government's official web portal to all federal, state and local government web resources and services.